CZ-3B R/B, 45864

Orbit data source: Space-Track

CZ-3B R/B, 45864 is space debris in HEO originally from a launch on Thu, 09 Jul 2020 UTC launched from the Xichang Space Center, China (XSC). Debris objects in space refer to the collection of defunct objects orbiting the Earth. Examples of debris include non-operational satellites, rocket bodies, and fragments generated from explosions, collisions, or faulty payload assembly.

Loading next visibility...
CZ-3B R/B details
Identifier
45864, 2020-045B
Orbit
HEO
Last TLE update1 day ago
Origin
Flag of CNCASC (CN / PRC)
ManufacturerCALT
MissionSpacecraft
Bus & MotorCZ-3A STAGE 3, Unknown motor
Mass~2,800 kg wet, ~2,800 kg dry
Launch date (UTC)
2020-07-09 (4 years ago)
Launch vehicleUnknown
Launch site
Xichang Space Center, China (XSC)
Object type
Payload
Rocket body
Debris
Shape & HBRCyl + 1 Nozzle, 12.38 m
Radar Cross Section32.704 m², Large (>1 m²)

Expand to show TLE details & history

TLE from 1 day ago
0 CZ-3B R/B
1 45864U 20045B   24360.32804357  .00099586 -11219-6  13224-2 0  9997
2 45864  28.3864 283.0724 5870481 210.8984  95.0667  4.34278985 50526
Epoch: 2024-12-25T07:52Z
Definitive object data (Epoch: 2024-12-25T07:52:22.964Z)
Latitude0.0001°
Longitude70.66527°
Altitude14,594.392 km
Speed3.591 km/s
True Right ascension18h 52m 20s
True Declination0° 00' 00"
Sunlit
Object was in daylight at TLE epoch
Visualization TLE readout
Latitude-5.40205°
Longitude59.65708°
Altitude11,671.965 km
Speed4.364 km/s
Apparent Right ascension18h 58m 21s
Apparent Declination-15° 41' 53"
Sunlit
Object is in daylight
Visualization observer readout
Local Sidereal Time10:28:52
Azimuth77.658° E
Elevation-38.445°
Doppler factor1
Orbital elements
Apogee altitude18,812.604 km
Perigee altitude176.525 km
Semi-major axis15,872.702 km
Eccentricity0.5870481
Inclination28.3864°
RAAN283.0724°
Arg. of periapsis210.8984°
True anomaly149.16663°
Mean anomaly95.0667°
Eccentric anomaly123.20877°
Mean motion1.08534 °/min
BSTAR0.0013224
Orbital period331.69 mins
Loading maneuver chart data...
Loading historical data...
Loading historical data...
Loading historical data...
Loading historical data...
Loading historical data...
Loading historical data...
Loading historical data...
Other satellites on launch #45 in the year 2020 (2020-07-09 UTC)

CZ-3B R/B Visibility forecast

Observer location: undefined°, undefined

Span
Click to sort rows by Start time (UTC) header in descending order
Start Az.
Max El. time (UTC)
Max El. Az.
Max El.
End time (UTC)
End Az.
223 mins2024-12-26 16:23:34.999Z150.022° SSE2024-12-26 18:39:34.999Z104.093° ESE27.056°2024-12-26 20:06:34.999Z78.603° E
235 mins2024-12-26 22:21:34.999Z238.43° WSW2024-12-27 01:51:34.999Z191.065° SSW43.104°2024-12-27 02:16:34.999Z113.737° SE
|